[[{"header":{"parameterUnit":"m.s-1","parameterCategory":2,"la1":30.2991,"la2":30.254,"lo1":-89.0895,"lo2":-89.0444,"dx":0.0017,"dy":0.0017,"nx":28,"ny":28,"refTime":"2022-12-12T03:00:00:Z","depth":"0","parameterNumber":2,"parameterNumberName":"U-component_of_CURRENTS"},"data":[0,0,0,0,0,0,0,0,0,0,0,0,0,0,0,0,0,0,0,0,0,0,0,0,0,0,0,0,0,0,0,0,0,0,0,0,0,0,0,0,0,0,0,0,0,0,0,0,0,0,0,0,0,0,0,0,0,0,0.1279,0.128,0,0.1246,0.1245,0.1244,0.1249,0.1251,0.1252,0.1253,0.1218,0.1216,0.1214,0,0,0,0,0,0,0,0,0,0,0,0,0,0.1267,0.1267,0.1279,0.128,0.128,0.1246,0.1245,0.1243,0.1249,0.1251,0.1252,0.1254,0.1219,0.1216,0.1214,0,0,0,0,0,0,0,0,0,0,0,0,0,0.1248,0.1267,0.1279,0.1286,0.1286,0.1246,0.1245,0.1243,0.1249,0.1251,0.1253,0.1255,0.122,0.1217,0.1213,0.115,0,0,0.1203,0.1201,0,0,0,0,0,0,0,0,0.1249,0.1248,0.1284,0.1285,0.1286,0.1262,0.1228,0.1215,0.1248,0.1253,0.1253,0.1256,0.1237,0.1232,0.1208,0.1148,0.1147,0.1203,0.1201,0.1199,0.1198,0,0,0,0,0,0,0,0.1251,0.1249,0.1257,0.1285,0.1286,0.1263,0.1262,0.1224,0.1227,0.1253,0.1256,0.1266,0.1237,0.1212,0.1208,0.1146,0.1203,0.12,0.1198,0.1196,0.112,0.112,0,0,0,0,0,0,0.1275,0.125,0.1258,0.1257,0.1283,0.1262,0.1261,0.126,0.1227,0.1227,0.1264,0.1266,0.1216,0.1212,0.1207,0.1212,0.1199,0.1196,0.1194,0.112,0.112,0.112,0,0,0,0,0,0,0.1274,0.1275,0.126,0.1261,0.1258,0.1262,0.126,0.1259,0.1256,0.1237,0.1235,0.1267,0.1218,0.1212,0.1198,0.1208,0.1194,0.1191,0.112,0.112,0.112,0.117,0,0,0,0,0,0,0.1274,0.1275,0.1274,0.1262,0.126,0.1266,0.1258,0.1257,0.1262,0.1265,0.1238,0.1236,0.1219,0.1203,0.1194,0.1203,0.1189,0.112,0.112,0.112,0.1168,0.1172,0.1174,0,0,0,0,0,0.1273,0.1281,0.1273,0.1275,0.126,0.1268,0.1263,0.1266,0.1261,0.1268,0.1247,0.1238,0.1197,0.12,0.119,0.1198,0.112,0.112,0.112,0.1167,0.1171,0.1174,0,0,0,0,0,0,0.1287,0.1282,0.1274,0.1282,0.1286,0.1273,0.1277,0.1271,0.1253,0.125,0.1229,0.1225,0.1222,0.1195,0.1198,0.1175,0.1159,0.1157,0.1199,0.1202,0.1205,0.1307,0.1186,0,0,0,0,0,0.1285,0.1287,0.1283,0.1294,0.1292,0.1278,0.1277,0.1277,0.1266,0.1261,0.1248,0.1224,0.1205,0.1195,0.1176,0.1149,0.1246,0.115,0.1153,0.1156,0.1231,0.1409,0.1439,0.1119,0.1119,0.1119,0,0,0.1299,0.1296,0.13,0.1297,0.1289,0.1291,0.1282,0.1287,0.1286,0.1256,0.125,0.1236,0.1202,0.1189,0.1184,0.1172,0.1283,0.1156,0.1159,0.1235,0.1413,0.1446,0.1474,0.1119,0.1119,0.1119,0,0,0.1337,0.1317,0.1331,0.1328,0.1326,0.1309,0.1317,0.1306,0.1298,0.1284,0.1269,0.129,0.1226,0.124,0.1227,0.1235,0.13,0.1193,0.1286,0.1455,0.1486,0.1514,0.1633,0.1672,0.1189,0.1189,0.1189,0,0.1353,0.1365,0.1341,0.135,0.1351,0.1322,0.1335,0.1312,0.1303,0.1323,0.1296,0.1317,0.127,0.1315,0.1307,0.1251,0.1348,0.1271,0.147,0.15,0.1528,0.1644,0.1686,0.1191,0.1191,0.1191,0.119,0,0.1398,0.1403,0.1413,0.1405,0.1397,0.1406,0.1374,0.1369,0.135,0.1365,0.1419,0.1394,0.144,0.1391,0.134,0.149,0.1491,0.1463,0.1478,0.1565,0.1677,0.1721,0.1195,0.1194,0.1193,0.1192,0,0,0.1447,0.1445,0.1448,0.1447,0.1423,0.142,0.1411,0.1427,0.1468,0.1473,0.1577,0.154,0.1595,0.1589,0.1553,0.167,0.1891,0.1651,0.1659,0.1803,0.2265,0.2228,0.2271,0.1914,0.1922,0.1929,0.2249,0,0.1492,0.152,0.1503,0.1516,0.1519,0.1483,0.1485,0.1493,0.1513,0.1602,0.1643,0.172,0.1644,0.1687,0.1801,0.1872,0.2017,0.1808,0.2134,0.2144,0.2131,0.2325,0.2284,0.2566,0.2292,0.2299,0.2304,0,0.1538,0.1547,0.1574,0.1566,0.1565,0.1568,0.1589,0.1593,0.1692,0.1732,0.1866,0.1916,0.2073,0.2004,0.2281,0.2157,0.2249,0.2307,0.232,0.2325,0.2193,0.2441,0.2656,0.2606,0.2371,0.2366,0.2361,0,0.1573,0.159,0.161,0.1607,0.1599,0.1607,0.1604,0.1658,0.1694,0.1871,0.1968,0.2161,0.2269,0.2457,0.2526,0.2457,0.2842,0.2753,0.2824,0.2818,0.2875,0.2861,0.3127,0.304,0.3039,0.3039,0.3038,0,0.1615,0.1628,0.1632,0.164,0.166,0.1647,0.1705,0.1732,0.1852,0.195,0.207,0.2206,0.2402,0.2588,0.2671,0.2888,0.2975,0.2941,0.295,0.2876,0.2859,0.2886,0.2824,0.305,0.3048,0.3046,0.3043,0,0.1636,0.165,0.1662,0.167,0.1674,0.1685,0.1725,0.1785,0.1893,0.2044,0.2121,0.2322,0.2574,0.2734,0.3025,0.3061,0.3207,0.3306,0.3172,0.3161,0.3167,0.3107,0.3238,0.3167,0.3512,0.3513,0.3515,0,0.1642,0.1658,0.1671,0.1673,0.1675,0.17,0.1722,0.1802,0.1878,0.2089,0.2179,0.2459,0.2629,0.3029,0.3206,0.3453,0.3297,0.3514,0.3386,0.3263,0.3205,0.2952,0.2862,0.3463,0.3463,0.3464,0.3465,0,0.164,0.1652,0.1658,0.168,0.1698,0.171,0.176,0.1813,0.1929,0.2066,0.2255,0.2419,0.2808,0.3064,0.3362,0.3477,0.3368,0.3536,0.35,0.3313,0.2978,0.2877,0.3096,0.3472,0.3471,0.347,0.347,0.347,0.1629,0.1639,0.1666,0.1668,0.168,0.1695,0.1694,0.1776,0.1878,0.2038,0.2229,0.246,0.2898,0.3335,0.3403,0.3572,0.3446,0.3553,0.3531,0.3312,0.3142,0.3346,0.3647,0.3647,0.3647,0.3648,0.3648,0,0.1631,0.1652,0.1649,0.1655,0.1635,0.1664,0.1695,0.1698,0.1769,0.199,0.2154,0.2631,0.2975,0.3288,0.3652,0.3606,0.3381,0.3528,0.3214,0.3158,0.3488,0.3382,0.3527,0.3527,0.3528,0.3528,0.3528,0.3528,0.1641,0.1657,0.1651,0.1608,0.1593,0.1561,0.155,0.1571,0.1687,0.1918,0.2176,0.2426,0.2944,0.3454,0.3622,0.3573,0.3324,0.3178,0.3117,0.3402,0.34,0.3398,0.3288,0.3411,0.3411,0.2661,0.2656,0.2653]},{"header":{"parameterUnit":"m.s-1","parameterCategory":2,"la1":30.2991,"la2":30.254,"lo1":-89.0895,"lo2":-89.0444,"dx":0.0017,"dy":0.0017,"nx":28,"ny":28,"refTime":"2022-12-12T03:00:00:Z","depth":"0","parameterNumber":3,"parameterNumberName":"V-component_of_CURRENTS"},"data":[0,0,0,0,0,0,0,0,0,0,0,0,0,0,0,0,0,0,0,0,0,0,0,0,0,0,0,0,0,0,0,0,0,0,0,0,0,0,0,0,0,0,0,0,0,0,0,0,0,0,0,0,0,0,0,0,0,0,-0.0114,-0.0114,0,-0.0067,-0.0066,-0.0065,-0.0013,-0.0013,-0.0012,-0.0012,-0.0086,-0.0089,-0.0091,0,0,0,0,0,0,0,0,0,0,0,0,0,-0.0147,-0.0146,-0.0114,-0.0114,-0.0114,-0.0067,-0.0066,-0.0065,-0.0013,-0.0013,-0.0012,-0.0012,-0.0086,-0.0088,-0.0091,0,0,0,0,0,0,0,0,0,0,0,0,0,-0.0115,-0.0146,-0.0114,-0.0086,-0.0084,-0.0068,-0.0066,-0.0065,-0.0013,-0.0013,-0.0012,-0.0012,-0.0085,-0.0088,-0.0091,-0.0121,0,0,-0.0102,-0.0103,0,0,0,0,0,0,0,0,-0.0117,-0.0113,-0.0091,-0.0088,-0.0085,-0.005,-0.0105,-0.0091,-0.0013,-0.0035,-0.0012,-0.0012,-0.0089,-0.0092,-0.0075,-0.0124,-0.0128,-0.0102,-0.0104,-0.0106,-0.0106,0,0,0,0,0,0,0,-0.0119,-0.0115,-0.009,-0.0091,-0.0088,-0.0072,-0.0067,-0.0101,-0.0063,-0.0033,-0.003,-0.0033,-0.0088,-0.0072,-0.0077,-0.0129,-0.0102,-0.0105,-0.0107,-0.0108,-0.0184,-0.0184,0,0,0,0,0,0,-0.0136,-0.0117,-0.0092,-0.009,-0.0106,-0.0072,-0.0066,-0.0058,-0.006,-0.006,-0.0034,-0.0031,-0.0066,-0.0073,-0.008,-0.0083,-0.0106,-0.0109,-0.0111,-0.0184,-0.0184,-0.0184,0,0,0,0,0,0,-0.0137,-0.0134,-0.0094,-0.0107,-0.0101,-0.0073,-0.0064,-0.0057,-0.0048,-0.006,-0.0062,-0.0033,-0.0066,-0.0075,-0.0101,-0.0088,-0.011,-0.0113,-0.0184,-0.0184,-0.0184,-0.0112,0,0,0,0,0,0,-0.0138,-0.0134,-0.013,-0.0108,-0.0102,-0.01,-0.0064,-0.0057,-0.0053,-0.0049,-0.0061,-0.0066,-0.0067,-0.0096,-0.0104,-0.0093,-0.0116,-0.0184,-0.0184,-0.0184,-0.0115,-0.011,-0.0106,0,0,0,0,0,-0.0139,-0.0134,-0.013,-0.0127,-0.0098,-0.0102,-0.0097,-0.0072,-0.0054,-0.0059,-0.005,-0.0066,-0.0102,-0.0099,-0.0109,-0.0097,-0.0184,-0.0184,-0.0184,-0.0117,-0.0111,-0.0106,0,0,0,0,0,0,-0.0144,-0.0129,-0.0123,-0.0113,-0.0118,-0.0095,-0.0092,-0.0082,-0.0074,-0.0069,-0.0072,-0.0077,-0.0092,-0.0116,-0.0112,-0.0121,-0.0145,-0.0147,-0.009,-0.0085,-0.0081,0.0034,-0.0119,0,0,0,0,0,-0.0147,-0.0138,-0.0135,-0.013,-0.0134,-0.0117,-0.0113,-0.0103,-0.0097,-0.0091,-0.01,-0.0105,-0.0099,-0.0109,-0.0124,-0.0141,-0.0102,-0.014,-0.0136,-0.0132,-0.0047,0.0015,0.0036,-0.0184,-0.0184,-0.0184,0,0,-0.0148,-0.014,-0.0134,-0.0132,-0.0126,-0.0129,-0.0112,-0.0115,-0.0101,-0.0107,-0.0098,-0.0101,-0.0102,-0.0099,-0.0109,-0.0118,-0.0063,-0.0132,-0.0128,-0.0043,0.0018,0.004,0.006,-0.0184,-0.0184,-0.0184,0,0,-0.0148,-0.0142,-0.0136,-0.0144,-0.015,-0.0144,-0.0153,-0.0147,-0.0124,-0.0136,-0.0106,-0.0069,-0.0132,-0.0063,-0.005,-0.0034,-0.0044,-0.0091,0.0032,0.0088,0.0109,0.0128,0.0158,0.0179,-0.0084,-0.0084,-0.0084,0,-0.015,-0.014,-0.014,-0.0145,-0.0141,-0.0154,-0.0152,-0.0139,-0.014,-0.0064,-0.014,-0.0041,-0.0083,0.0055,0.0051,-0.0011,-0.0002,0.0012,0.0102,0.0121,0.014,0.0166,0.0189,-0.0081,-0.0081,-0.0081,-0.0082,0,-0.0148,-0.0146,-0.0149,-0.0149,-0.015,-0.0158,-0.0149,-0.0122,-0.0117,-0.0059,0.005,0.0039,0.0145,0.0091,0.0064,0.0197,0.015,0.0097,0.0103,0.0168,0.0188,0.0211,-0.0076,-0.0077,-0.0078,-0.0079,0,0,-0.0132,-0.0142,-0.0143,-0.0129,-0.015,-0.0139,-0.0101,-0.0012,0.0131,0.0098,0.0295,0.028,0.0355,0.038,0.0371,0.0398,0.0474,0.0298,0.0299,0.0356,0.0579,0.0488,0.0502,0.0419,0.0424,0.0428,0.0525,0,-0.0129,-0.0129,-0.0129,-0.0116,-0.0114,-0.0083,-0.0005,0.0085,0.0175,0.0353,0.0421,0.0565,0.0439,0.0524,0.0538,0.052,0.0545,0.0454,0.0488,0.0491,0.0426,0.0531,0.0497,0.0577,0.0547,0.0551,0.0554,0,-0.0122,-0.0119,-0.0112,-0.0035,-0.0018,0.0001,0.0201,0.0276,0.0529,0.0633,0.0817,0.0884,0.1013,0.085,0.0899,0.0835,0.0737,0.0672,0.0673,0.0608,0.0445,0.0514,0.0619,0.0377,0.0588,0.0586,0.0583,0,-0.0103,-0.0091,-0.0076,-0.0074,0.0,0.0072,0.0149,0.0383,0.0577,0.086,0.1049,0.1194,0.1298,0.1228,0.1071,0.1005,0.1065,0.0961,0.08,0.079,0.0791,0.0773,0.0712,0.1002,0.1002,0.1002,0.1001,0,-0.0096,-0.0075,-0.0061,-0.0054,0.0073,0.0118,0.0365,0.0504,0.0825,0.1123,0.1218,0.1461,0.1386,0.1402,0.1214,0.109,0.1183,0.0897,0.0844,0.0801,0.0784,0.0595,0.0454,0.1005,0.1004,0.1004,0.1003,0,-0.0076,-0.0087,-0.0048,0.0025,0.0072,0.0172,0.0465,0.0724,0.0959,0.1351,0.146,0.1703,0.1718,0.1585,0.1483,0.1293,0.1023,0.1064,0.1002,0.0941,0.0576,0.0441,0.0458,0.0301,0.0986,0.0985,0.0984,0,-0.0061,-0.0053,0.0007,0.0088,0.0119,0.0297,0.0512,0.0776,0.1078,0.1497,0.1722,0.1859,0.1997,0.1822,0.151,0.1243,0.0985,0.1014,0.0899,0.0619,0.0431,0.0372,0.0233,0.0908,0.0907,0.0906,0.0905,0,0.0006,0.0011,0.0056,0.0214,0.0378,0.0612,0.0899,0.1127,0.1494,0.1775,0.2128,0.2245,0.2106,0.1888,0.1496,0.1261,0.084,0.0979,0.0741,0.0445,0.034,0.0138,0.0742,0.0894,0.0895,0.0896,0.0896,0.0897,0.01,0.0163,0.0261,0.0415,0.0609,0.0931,0.1151,0.1463,0.1857,0.2254,0.2338,0.2495,0.2181,0.1682,0.1327,0.0697,0.073,0.0516,0.0402,0.039,0.0174,0.0737,0.0774,0.0775,0.0775,0.0775,0.0776,0,0.0307,0.0388,0.0511,0.0733,0.0979,0.1061,0.1464,0.1688,0.2055,0.2328,0.2548,0.2488,0.1978,0.1451,0.0665,0.0221,0.0043,-0.0029,-0.0118,-0.0221,0.0341,0.0264,0.013,0.0131,0.0131,0.0131,0.0131,0.0132,0.0453,0.063,0.0677,0.1063,0.122,0.159,0.18,0.2039,0.2252,0.251,0.2616,0.2689,0.2401,0.1015,-0.0008,-0.0316,-0.0676,-0.0674,-0.0874,-0.0523,-0.0481,-0.0441,-0.0546,-0.0847,-0.0849,-0.1392,-0.1398,-0.1402]}],[{"header":{"parameterUnit":"m.s-1","parameterCategory":2,"la1":30.2991,"la2":30.254,"lo1":-89.0895,"lo2":-89.0444,"dx":0.0017,"dy":0.0017,"nx":28,"ny":28,"refTime":"2022-12-12T03:00:00:Z","depth":"2","parameterNumber":2,"parameterNumberName":"U-component_of_CURRENTS"},"data":[0,0,0,0,0,0,0,0,0,0,0,0,0,0,0,0,0,0,0,0,0,0,0,0,0,0,0,0,0,0,0,0,0,0,0,0,0,0,0,0,0,0,0,0,0,0,0,0,0,0,0,0,0,0,0,0,0,0,0.1626,0.1627,0,0.1708,0.1709,0.1709,0.1722,0.1722,0.1722,0.1722,0.1705,0.1705,0.1705,0,0,0,0,0,0,0,0,0,0,0,0,0,0.1493,0.1494,0.1626,0.1627,0.1629,0.1708,0.1709,0.1709,0.1722,0.1722,0.1722,0.1721,0.1706,0.1705,0.1705,0,0,0,0,0,0,0,0,0,0,0,0,0,0.1555,0.1495,0.1625,0.1649,0.1652,0.1708,0.1709,0.1709,0.1722,0.1722,0.1722,0.1721,0.1706,0.1705,0.1705,0.171,0,0,0.1704,0.1704,0,0,0,0,0,0,0,0,0.1551,0.1559,0.1644,0.1647,0.1651,0.1709,0.1656,0.1707,0.1722,0.169,0.1722,0.1721,0.1701,0.1701,0.1711,0.1709,0.1709,0.1704,0.1704,0.1704,0.1704,0,0,0,0,0,0,0,0.1547,0.1556,0.1653,0.1646,0.165,0.166,0.1668,0.1666,0.169,0.1693,0.1695,0.1713,0.1702,0.1712,0.1711,0.1708,0.1704,0.1704,0.1704,0.1703,0.1765,0.1767,0,0,0,0,0,0,0.1548,0.1552,0.165,0.1656,0.1606,0.1663,0.1671,0.1687,0.1693,0.1696,0.1713,0.1714,0.1712,0.1711,0.171,0.1761,0.1704,0.1703,0.1703,0.1763,0.1765,0.1767,0,0,0,0,0,0,0.1545,0.1556,0.1647,0.161,0.1623,0.1666,0.1683,0.1688,0.171,0.1711,0.171,0.173,0.1712,0.1711,0.1724,0.1759,0.1703,0.1703,0.1761,0.1764,0.1766,0.1834,0,0,0,0,0,0,0.154,0.1554,0.1553,0.161,0.1625,0.1683,0.1684,0.1691,0.1723,0.1724,0.1725,0.1723,0.1712,0.1725,0.1724,0.1757,0.1703,0.1759,0.1762,0.1765,0.1829,0.1838,0.1846,0,0,0,0,0,0.1535,0.1543,0.1552,0.1564,0.1627,0.1685,0.1693,0.1718,0.1724,0.1735,0.1742,0.1723,0.1746,0.1726,0.1724,0.1758,0.1757,0.1761,0.1765,0.1825,0.1836,0.1846,0,0,0,0,0,0,0.1498,0.1547,0.1559,0.1584,0.1632,0.1689,0.1696,0.1727,0.1744,0.1736,0.1738,0.1737,0.1765,0.1753,0.1731,0.1788,0.1752,0.1756,0.1798,0.1809,0.1817,0.1796,0.1702,0,0,0,0,0,0.1488,0.15,0.156,0.1583,0.1598,0.165,0.1673,0.1698,0.173,0.1738,0.1753,0.1763,0.1781,0.1786,0.1792,0.1817,0.1821,0.1842,0.185,0.1857,0.1842,0.1889,0.19,0.1781,0.1781,0.178,0,0,0.1488,0.1513,0.1524,0.1575,0.1603,0.1639,0.1661,0.17,0.1737,0.173,0.1772,0.1788,0.1794,0.1827,0.1839,0.1821,0.1902,0.1863,0.1869,0.1848,0.1895,0.1906,0.1916,0.1783,0.1783,0.1782,0,0,0.1504,0.1507,0.1526,0.1552,0.1599,0.163,0.1647,0.1711,0.1737,0.1781,0.1797,0.1835,0.1855,0.1882,0.1892,0.1951,0.1944,0.196,0.1986,0.2034,0.2044,0.2053,0.2103,0.2115,0.1966,0.1966,0.1967,0,0.1504,0.1534,0.1545,0.1566,0.159,0.1629,0.1666,0.1698,0.1768,0.1797,0.1794,0.1873,0.1881,0.194,0.1964,0.197,0.1992,0.1947,0.2045,0.2053,0.2061,0.211,0.2123,0.197,0.197,0.1969,0.1969,0,0.1541,0.1555,0.1566,0.1601,0.1623,0.1659,0.1703,0.174,0.1776,0.1822,0.1889,0.1918,0.1965,0.1992,0.1989,0.2063,0.2063,0.205,0.2016,0.2077,0.2125,0.2137,0.1976,0.1974,0.1973,0.1972,0,0,0.1584,0.1593,0.1599,0.1609,0.1641,0.1673,0.1713,0.178,0.1832,0.188,0.1953,0.2,0.2025,0.2039,0.2068,0.211,0.2201,0.2102,0.2103,0.2146,0.2314,0.2248,0.2254,0.2207,0.2209,0.2211,0.2337,0,0.1622,0.1658,0.1654,0.1694,0.1715,0.173,0.1776,0.1827,0.1877,0.1953,0.199,0.2062,0.2042,0.2088,0.2122,0.2187,0.223,0.2167,0.2252,0.2254,0.2182,0.2265,0.2112,0.2205,0.2349,0.2351,0.2352,0,0.1673,0.1685,0.1724,0.1742,0.1754,0.1783,0.185,0.1897,0.1979,0.2019,0.2073,0.2111,0.219,0.2161,0.2271,0.2234,0.2267,0.2304,0.231,0.2221,0.2208,0.2162,0.2221,0.2372,0.237,0.2369,0.2368,0,0.1711,0.1736,0.1766,0.1771,0.1802,0.1826,0.1855,0.1927,0.1978,0.2071,0.2128,0.2198,0.2272,0.2305,0.2365,0.2332,0.2481,0.2448,0.2418,0.2415,0.2283,0.2264,0.251,0.251,0.2509,0.2509,0.2509,0,0.1754,0.1775,0.1786,0.18,0.184,0.1856,0.1921,0.1962,0.2047,0.2132,0.2167,0.2257,0.2312,0.2396,0.2407,0.2458,0.2518,0.243,0.2443,0.2306,0.2288,0.2414,0.2402,0.2514,0.2513,0.2512,0.2511,0,0.1783,0.1796,0.1818,0.1845,0.1855,0.1882,0.1932,0.2,0.2073,0.2187,0.2223,0.2338,0.2439,0.2478,0.2577,0.2536,0.2578,0.2575,0.2409,0.2397,0.2467,0.2457,0.2551,0.255,0.2549,0.2548,0.2547,0,0.1799,0.1816,0.1834,0.1849,0.1856,0.1895,0.1943,0.2005,0.2079,0.2245,0.2314,0.244,0.2505,0.2601,0.2577,0.2581,0.2602,0.2428,0.2312,0.2469,0.2472,0.2463,0.2455,0.2192,0.2188,0.2186,0.2183,0,0.1813,0.182,0.1832,0.1868,0.1903,0.1933,0.2001,0.2049,0.2166,0.2252,0.2395,0.2454,0.2544,0.2479,0.2467,0.2435,0.2402,0.2365,0.2609,0.2185,0.2135,0.2136,0.2139,0.2157,0.2159,0.2161,0.2163,0.2164,0.1817,0.1824,0.1854,0.1881,0.1924,0.1973,0.1979,0.2044,0.2122,0.2184,0.233,0.2327,0.2369,0.2244,0.2194,0.2148,0.2285,0.2174,0.2182,0.2193,0.2109,0.2056,0.205,0.2052,0.2054,0.2055,0.2057,0,0.1821,0.1845,0.1871,0.1906,0.1942,0.1972,0.2027,0.1976,0.2002,0.2076,0.21,0.1941,0.1909,0.1941,0.1857,0.1848,0.1805,0.1754,0.1705,0.1735,0.1761,0.1651,0.1473,0.147,0.1468,0.1466,0,0,0.1831,0.1856,0.1867,0.1915,0.1946,0.1957,0.1962,0.1833,0.1818,0.1717,0.1699,0.1768,0.1909,0.1657,0.1642,0.1561,0.162,0.149,0.1972,0.1949,0.1971,0.2033,0.1902,0,0,0,0,0]},{"header":{"parameterUnit":"m.s-1","parameterCategory":2,"la1":30.2991,"la2":30.254,"lo1":-89.0895,"lo2":-89.0444,"dx":0.0017,"dy":0.0017,"nx":28,"ny":28,"refTime":"2022-12-12T03:00:00:Z","depth":"2","parameterNumber":3,"parameterNumberName":"V-component_of_CURRENTS"},"data":[0,0,0,0,0,0,0,0,0,0,0,0,0,0,0,0,0,0,0,0,0,0,0,0,0,0,0,0,0,0,0,0,0,0,0,0,0,0,0,0,0,0,0,0,0,0,0,0,0,0,0,0,0,0,0,0,0,0,-0.0266,-0.0268,0,-0.0415,-0.0417,-0.0418,-0.0506,-0.0507,-0.0507,-0.0508,-0.0551,-0.0552,-0.0553,0,0,0,0,0,0,0,0,0,0,0,0,0,-0.0179,-0.0179,-0.0266,-0.0268,-0.027,-0.0415,-0.0417,-0.0419,-0.0506,-0.0507,-0.0507,-0.0508,-0.0551,-0.0552,-0.0553,0,0,0,0,0,0,0,0,0,0,0,0,0,-0.0258,-0.0179,-0.0265,-0.0333,-0.034,-0.0415,-0.0417,-0.0419,-0.0506,-0.0507,-0.0508,-0.0508,-0.0551,-0.0552,-0.0553,-0.0541,0,0,-0.0556,-0.0556,0,0,0,0,0,0,0,0,-0.0254,-0.0261,-0.0321,-0.0328,-0.0337,-0.0445,-0.0403,-0.0455,-0.0506,-0.044,-0.0508,-0.0509,-0.0507,-0.0512,-0.0536,-0.0543,-0.0545,-0.0556,-0.0556,-0.0557,-0.0557,0,0,0,0,0,0,0,-0.0248,-0.0256,-0.0322,-0.0323,-0.0333,-0.0398,-0.0409,-0.0414,-0.0463,-0.0446,-0.0453,-0.0474,-0.051,-0.0535,-0.0537,-0.0545,-0.0556,-0.0556,-0.0557,-0.0557,-0.0591,-0.0591,0,0,0,0,0,0,-0.0227,-0.025,-0.0318,-0.0327,-0.0299,-0.0398,-0.0411,-0.0407,-0.0465,-0.0477,-0.0473,-0.0477,-0.0533,-0.0536,-0.0539,-0.0552,-0.0557,-0.0557,-0.0558,-0.059,-0.0591,-0.0591,0,0,0,0,0,0,-0.0224,-0.023,-0.0312,-0.0296,-0.0311,-0.0398,-0.0395,-0.041,-0.044,-0.0487,-0.0496,-0.0488,-0.0534,-0.0537,-0.0556,-0.0553,-0.0558,-0.0559,-0.059,-0.0591,-0.0591,-0.0563,0,0,0,0,0,0,-0.022,-0.0227,-0.0219,-0.0293,-0.0311,-0.0346,-0.0395,-0.0412,-0.0452,-0.0459,-0.0502,-0.0508,-0.0535,-0.0554,-0.0557,-0.0555,-0.0559,-0.059,-0.059,-0.0591,-0.0563,-0.0562,-0.0561,0,0,0,0,0,-0.0216,-0.0209,-0.0217,-0.0226,-0.0295,-0.0346,-0.036,-0.0425,-0.0451,-0.0456,-0.0498,-0.0507,-0.056,-0.0555,-0.0558,-0.0556,-0.0589,-0.059,-0.0591,-0.0564,-0.0562,-0.0561,0,0,0,0,0,0,-0.0187,-0.022,-0.023,-0.0237,-0.0279,-0.0361,-0.038,-0.0419,-0.0458,-0.046,-0.0507,-0.0515,-0.0533,-0.0546,-0.054,-0.057,-0.0577,-0.0578,-0.0555,-0.0554,-0.0553,-0.0545,-0.056,0,0,0,0,0,-0.0167,-0.016,-0.021,-0.0218,-0.023,-0.0299,-0.0329,-0.0364,-0.0413,-0.0433,-0.0472,-0.0507,-0.0537,-0.0547,-0.0571,-0.0577,-0.0592,-0.058,-0.0579,-0.0578,-0.0575,-0.0611,-0.0613,-0.0594,-0.0594,-0.0594,0,0,-0.0165,-0.018,-0.0181,-0.021,-0.0247,-0.0267,-0.0318,-0.0351,-0.0373,-0.0426,-0.0462,-0.0499,-0.0539,-0.0561,-0.0569,-0.0571,-0.0589,-0.0579,-0.0578,-0.0575,-0.0612,-0.0614,-0.0615,-0.0594,-0.0594,-0.0594,0,0,-0.0163,-0.0158,-0.0154,-0.0174,-0.0212,-0.0243,-0.0246,-0.0311,-0.034,-0.0372,-0.0426,-0.0464,-0.0502,-0.0543,-0.0565,-0.0568,-0.0585,-0.0574,-0.0559,-0.0594,-0.0596,-0.0597,-0.0605,-0.0607,-0.0572,-0.0572,-0.0571,0,-0.016,-0.0156,-0.0166,-0.0171,-0.0189,-0.0226,-0.0235,-0.0265,-0.0333,-0.0358,-0.0372,-0.0469,-0.0495,-0.0545,-0.0554,-0.0564,-0.058,-0.0558,-0.0592,-0.0594,-0.0596,-0.0604,-0.0607,-0.057,-0.057,-0.0571,-0.0571,0,-0.0158,-0.0156,-0.0157,-0.0159,-0.0172,-0.0185,-0.0215,-0.0234,-0.0265,-0.0312,-0.0365,-0.042,-0.0481,-0.0497,-0.0525,-0.0563,-0.0566,-0.0587,-0.0591,-0.0596,-0.0604,-0.0608,-0.0568,-0.0569,-0.0569,-0.057,0,0,-0.0151,-0.0154,-0.0154,-0.0147,-0.0162,-0.0171,-0.0184,-0.0218,-0.024,-0.0294,-0.0338,-0.0402,-0.0443,-0.0471,-0.0518,-0.055,-0.0575,-0.0572,-0.0574,-0.0572,-0.0636,-0.0596,-0.0597,-0.0606,-0.0607,-0.0607,-0.0629,0,-0.0151,-0.015,-0.0149,-0.0144,-0.0142,-0.0156,-0.0169,-0.0197,-0.0234,-0.0279,-0.034,-0.0389,-0.0429,-0.0457,-0.0499,-0.056,-0.0587,-0.0566,-0.0637,-0.0639,-0.0598,-0.0601,-0.0572,-0.0586,-0.0633,-0.0633,-0.0634,0,-0.0145,-0.0143,-0.014,-0.0128,-0.0126,-0.0125,-0.0137,-0.0153,-0.0213,-0.0243,-0.0305,-0.0358,-0.0419,-0.0446,-0.0543,-0.0529,-0.0577,-0.0619,-0.0621,-0.0597,-0.0607,-0.0593,-0.0591,-0.0641,-0.064,-0.064,-0.0639,0,-0.0128,-0.0128,-0.0119,-0.0119,-0.0118,-0.0114,-0.0111,-0.0152,-0.0161,-0.022,-0.0234,-0.0329,-0.0354,-0.0444,-0.0512,-0.0538,-0.06,-0.0648,-0.0656,-0.0653,-0.0647,-0.0642,-0.0711,-0.0711,-0.0711,-0.071,-0.071,0,-0.0114,-0.0105,-0.011,-0.0103,-0.0082,-0.0089,-0.0082,-0.0096,-0.013,-0.0128,-0.0211,-0.0207,-0.0354,-0.0404,-0.0494,-0.0562,-0.0582,-0.0647,-0.0659,-0.0634,-0.0627,-0.0696,-0.0694,-0.0711,-0.0711,-0.0711,-0.0711,0,-0.0085,-0.0098,-0.0081,-0.0078,-0.0071,-0.0051,-0.0034,-0.0034,-0.0064,-0.0061,-0.0069,-0.012,-0.0162,-0.029,-0.041,-0.051,-0.0597,-0.0613,-0.0554,-0.0558,-0.0639,-0.0635,-0.0659,-0.0658,-0.0657,-0.0656,-0.0655,0,-0.0069,-0.0064,-0.005,-0.0024,-0.0014,0.0007,0.0024,0.0002,0.0011,0.0018,0.0036,0.0003,0.0026,-0.0122,-0.0307,-0.0457,-0.0505,-0.0548,-0.0604,-0.0626,-0.0636,-0.0634,-0.0631,-0.0584,-0.0583,-0.0582,-0.0581,0,-0.0034,-0.0035,-0.0012,0.0029,0.0058,0.0092,0.012,0.0135,0.0124,0.0183,0.0277,0.0309,0.0161,0.004,-0.0193,-0.0307,-0.0533,-0.0533,-0.0579,-0.0592,-0.0555,-0.0564,-0.0565,-0.0572,-0.0573,-0.0574,-0.0574,-0.0575,-0.0007,0.002,0.0042,0.0082,0.0128,0.0177,0.0223,0.0292,0.0376,0.0475,0.0473,0.0557,0.0321,0.0083,-0.0136,-0.0402,-0.0423,-0.054,-0.0544,-0.0549,-0.0526,-0.0489,-0.0489,-0.0489,-0.0489,-0.049,-0.049,0,0.0005,0.0037,0.0095,0.0133,0.0184,0.0204,0.0286,0.0374,0.0541,0.0648,0.0769,0.0626,0.046,0.0197,-0.0185,-0.0421,-0.0464,-0.049,-0.0511,-0.0517,-0.0523,-0.0502,-0.0457,-0.0457,-0.0458,-0.0458,0,0,0.0011,0.0047,0.0068,0.0143,0.0199,0.0288,0.0351,0.0565,0.069,0.088,0.0939,0.0911,0.0568,0.0302,-0.0026,-0.024,-0.0321,-0.0275,-0.0279,-0.0272,-0.0275,-0.0531,-0.0501,0,0,0,0,0]}],[{"header":{"parameterUnit":"m.s-1","parameterCategory":2,"la1":30.2991,"la2":30.254,"lo1":-89.0895,"lo2":-89.0444,"dx":0.0017,"dy":0.0017,"nx":28,"ny":28,"refTime":"2022-12-12T03:00:00:Z","depth":"4","parameterNumber":2,"parameterNumberName":"U-component_of_CURRENTS"},"data":[0,0,0,0,0,0,0,0,0,0,0,0,0,0,0,0,0,0,0,0,0,0,0,0,0,0,0,0,0,0,0,0,0,0,0,0,0,0,0,0,0,0,0,0,0,0,0,0,0,0,0,0,0,0,0,0,0,0,0.0643,0.0644,0,0.0676,0.0676,0.0676,0.0728,0.073,0.0731,0.0732,0.0832,0.0833,0.0835,0,0,0,0,0,0,0,0,0,0,0,0,0,0.0607,0.0607,0.0643,0.0644,0.0645,0.0676,0.0676,0.0676,0.0728,0.073,0.0732,0.0733,0.0832,0.0833,0.0835,0,0,0,0,0,0,0,0,0,0,0,0,0,0.0625,0.0607,0.0643,0.0678,0.0682,0.0676,0.0676,0.0676,0.0728,0.073,0.0732,0.0734,0.0831,0.0833,0.0835,0.0805,0,0,0.0841,0.0842,0,0,0,0,0,0,0,0,0.0624,0.0626,0.0672,0.0676,0.068,0.0705,0.07,0.0724,0.0727,0.0705,0.0733,0.0735,0.0797,0.0802,0.0796,0.081,0.0814,0.0841,0.0842,0.0843,0.0844,0,0,0,0,0,0,0,0.0623,0.0624,0.0651,0.0673,0.0678,0.0687,0.0691,0.0704,0.0736,0.0707,0.0712,0.0723,0.08,0.0793,0.0799,0.0815,0.0841,0.0843,0.0844,0.0845,0.0893,0.0893,0,0,0,0,0,0,0.0627,0.0623,0.065,0.0652,0.0662,0.0686,0.0691,0.069,0.0735,0.0745,0.0721,0.0726,0.0789,0.0796,0.0802,0.0891,0.0843,0.0845,0.0846,0.0893,0.0893,0.0893,0,0,0,0,0,0,0.0626,0.0628,0.0649,0.0643,0.0647,0.0685,0.0684,0.069,0.073,0.0746,0.0756,0.0762,0.0791,0.08,0.0847,0.0892,0.0846,0.0848,0.0893,0.0893,0.0893,0.0992,0,0,0,0,0,0,0.0624,0.0627,0.0642,0.0643,0.0648,0.0681,0.0683,0.0689,0.0733,0.074,0.0783,0.0791,0.0793,0.0844,0.0849,0.0893,0.0849,0.0893,0.0893,0.0893,0.0988,0.0995,0.1001,0,0,0,0,0,0.0623,0.063,0.0642,0.0646,0.0661,0.0683,0.0686,0.0716,0.0734,0.0758,0.0782,0.0792,0.0848,0.0846,0.0852,0.0898,0.0893,0.0893,0.0893,0.0986,0.0994,0.1001,0,0,0,0,0,0,0.0628,0.0636,0.0649,0.0662,0.069,0.0695,0.0715,0.0737,0.0771,0.0785,0.08,0.081,0.087,0.0855,0.0852,0.0904,0.0869,0.087,0.0937,0.0945,0.0951,0.0965,0.0851,0,0,0,0,0,0.0633,0.0631,0.0658,0.0667,0.0685,0.0707,0.0725,0.0748,0.0771,0.079,0.082,0.0839,0.0862,0.0885,0.0898,0.0929,0.0922,0.0954,0.0961,0.0967,0.0978,0.099,0.0999,0.0893,0.0893,0.0893,0,0,0.0633,0.0639,0.064,0.0668,0.0685,0.0715,0.0723,0.0759,0.0791,0.0794,0.0852,0.0873,0.0875,0.0916,0.0939,0.092,0.0994,0.0967,0.0973,0.098,0.0991,0.1002,0.1011,0.0894,0.0894,0.0894,0,0,0.063,0.0646,0.0653,0.0681,0.0723,0.0737,0.0762,0.0797,0.0828,0.0873,0.0887,0.0943,0.0961,0.0989,0.0997,0.1041,0.1031,0.1035,0.1085,0.1097,0.1107,0.1115,0.1135,0.1144,0.1034,0.1034,0.1035,0,0.064,0.0647,0.0663,0.069,0.0717,0.0755,0.079,0.0817,0.0867,0.0899,0.0905,0.0971,0.0999,0.1052,0.1075,0.1066,0.1058,0.1066,0.111,0.1118,0.1125,0.1142,0.1151,0.1039,0.1039,0.1038,0.1038,0,0.0648,0.0669,0.0678,0.0717,0.0754,0.0784,0.0834,0.0885,0.0925,0.0953,0.1028,0.1057,0.11,0.1117,0.1119,0.1182,0.1157,0.1125,0.1101,0.1142,0.1157,0.1165,0.1046,0.1044,0.1043,0.1042,0,0,0.0627,0.0672,0.068,0.0709,0.0772,0.0803,0.0867,0.0933,0.0988,0.1039,0.1102,0.1166,0.1194,0.1205,0.122,0.1242,0.1313,0.1211,0.1209,0.125,0.134,0.1283,0.1286,0.128,0.1282,0.1283,0.1337,0,0.0633,0.067,0.07,0.0757,0.0786,0.0851,0.0908,0.098,0.1035,0.1106,0.1154,0.122,0.1218,0.1263,0.1285,0.1309,0.1334,0.1301,0.1277,0.1276,0.1237,0.1293,0.1288,0.1343,0.1344,0.1346,0.1346,0,0.0632,0.0659,0.0706,0.078,0.0805,0.086,0.0969,0.1028,0.1129,0.117,0.1239,0.1276,0.1358,0.1333,0.1391,0.1363,0.1367,0.137,0.1371,0.1288,0.1233,0.1285,0.136,0.1359,0.1358,0.1357,0.1356,0,0.06,0.0662,0.0697,0.0724,0.082,0.0882,0.0953,0.1061,0.1125,0.1231,0.1284,0.135,0.1409,0.1417,0.1451,0.1423,0.1487,0.1443,0.1392,0.1387,0.138,0.137,0.1474,0.1474,0.1473,0.1473,0.1473,0,0.0582,0.0616,0.0694,0.0725,0.0798,0.0882,0.0987,0.1061,0.1178,0.1245,0.1326,0.1382,0.1431,0.1476,0.1473,0.1467,0.1506,0.1421,0.1402,0.1419,0.1413,0.1387,0.1376,0.1475,0.1475,0.1474,0.1474,0,0.0539,0.0585,0.0637,0.0745,0.0786,0.0853,0.101,0.1065,0.1192,0.1284,0.1329,0.1434,0.1495,0.153,0.1562,0.1504,0.1502,0.1485,0.1529,0.1509,0.1388,0.1381,0.1432,0.1431,0.143,0.1429,0.1428,0,0.0518,0.053,0.0639,0.0689,0.075,0.0861,0.0918,0.1053,0.1116,0.1299,0.1322,0.1449,0.1499,0.1505,0.1539,0.1538,0.1511,0.1492,0.1422,0.141,0.1386,0.1381,0.1377,0.1426,0.1426,0.1425,0.1425,0,0.0467,0.0507,0.0552,0.0651,0.0723,0.0799,0.091,0.0953,0.1098,0.1206,0.1304,0.1366,0.1434,0.1468,0.149,0.1475,0.1494,0.1478,0.1479,0.1413,0.1402,0.1379,0.1376,0.1421,0.1421,0.1422,0.1422,0,0.0421,0.0443,0.0508,0.0596,0.0681,0.0742,0.0805,0.0892,0.0977,0.1169,0.1193,0.1321,0.142,0.1438,0.1452,0.145,0.1416,0.134,0.1348,0.1353,0.1302,0.1274,0.1256,0,0,0,0,0,0.0361,0.0388,0.0457,0.0551,0.0635,0.0693,0.0794,0.0854,0.0978,0.101,0.1117,0.1183,0.1256,0.1324,0.1306,0.1404,0.1406,0.1374,0.1318,0.1397,0.1402,0.1348,0,0,0,0,0,0,0.0328,0.0373,0.042,0.0492,0.0557,0.063,0.069,0.0765,0.0815,0.0952,0.1002,0.1104,0.1191,0.1257,0.1283,0.1299,0.1237,0.1453,0.145,0.1394,0.1398,0.1402,0.1349,0,0,0,0,0]},{"header":{"parameterUnit":"m.s-1","parameterCategory":2,"la1":30.2991,"la2":30.254,"lo1":-89.0895,"lo2":-89.0444,"dx":0.0017,"dy":0.0017,"nx":28,"ny":28,"refTime":"2022-12-12T03:00:00:Z","depth":"4","parameterNumber":3,"parameterNumberName":"V-component_of_CURRENTS"},"data":[0,0,0,0,0,0,0,0,0,0,0,0,0,0,0,0,0,0,0,0,0,0,0,0,0,0,0,0,0,0,0,0,0,0,0,0,0,0,0,0,0,0,0,0,0,0,0,0,0,0,0,0,0,0,0,0,0,0,0.0172,0.0171,0,0.0121,0.012,0.012,0.0062,0.0061,0.006,0.0059,-0.0034,-0.0035,-0.0037,0,0,0,0,0,0,0,0,0,0,0,0,0,0.0197,0.0197,0.0172,0.0171,0.017,0.0121,0.012,0.012,0.0062,0.0061,0.006,0.0059,-0.0033,-0.0035,-0.0037,0,0,0,0,0,0,0,0,0,0,0,0,0,0.0171,0.0197,0.0172,0.0135,0.0131,0.0121,0.012,0.012,0.0063,0.0061,0.006,0.0058,-0.0033,-0.0035,-0.0037,-0.0022,0,0,-0.0044,-0.0045,0,0,0,0,0,0,0,0,0.0173,0.0171,0.0141,0.0137,0.0133,0.0095,0.0095,0.007,0.0063,0.009,0.0059,0.0058,0.0006,0.0,-0.0004,-0.0027,-0.0031,-0.0045,-0.0046,-0.0047,-0.0048,0,0,0,0,0,0,0,0.0175,0.0172,0.0153,0.014,0.0135,0.0113,0.0108,0.009,0.0057,0.0088,0.0083,0.0076,0.0003,-0.0001,-0.0006,-0.0032,-0.0044,-0.0047,-0.0048,-0.0049,-0.0058,-0.0057,0,0,0,0,0,0,0.0181,0.0174,0.0155,0.0151,0.0148,0.0114,0.0108,0.011,0.0058,0.0048,0.0077,0.0073,0.0004,-0.0004,-0.001,-0.0019,-0.0047,-0.0049,-0.0051,-0.0059,-0.0058,-0.0056,0,0,0,0,0,0,0.0182,0.0181,0.0157,0.016,0.0155,0.0115,0.0117,0.011,0.0098,0.005,0.004,0.0072,0.0002,-0.0007,-0.0032,-0.0023,-0.005,-0.0052,-0.006,-0.0059,-0.0057,-0.0022,0,0,0,0,0,0,0.0184,0.0182,0.0187,0.0161,0.0155,0.0149,0.0118,0.011,0.0096,0.009,0.0043,0.0033,0.0,-0.0028,-0.0035,-0.0026,-0.0054,-0.0062,-0.006,-0.0057,-0.0025,-0.002,-0.0015,0,0,0,0,0,0.0185,0.0198,0.0187,0.0185,0.0163,0.015,0.0145,0.0112,0.0097,0.0096,0.0061,0.0034,-0.0018,-0.003,-0.0037,-0.0029,-0.0063,-0.006,-0.0058,-0.0027,-0.0021,-0.0015,0,0,0,0,0,0,0.0204,0.0193,0.018,0.0187,0.0169,0.0139,0.0139,0.0118,0.0093,0.0088,0.0041,0.0029,0.0009,-0.0006,-0.0017,-0.0021,-0.0041,-0.004,-0.0015,-0.001,-0.0005,-0.0015,-0.0056,0,0,0,0,0,0.0214,0.0226,0.0201,0.0207,0.0202,0.0174,0.0165,0.0144,0.0118,0.0105,0.0071,0.0044,0.0019,0.0006,-0.0018,-0.0019,-0.0059,-0.0014,-0.0009,-0.0005,-0.0015,-0.0078,-0.0081,-0.0048,-0.0048,-0.0048,0,0,0.0222,0.0218,0.0222,0.0212,0.0199,0.0201,0.0165,0.0158,0.0156,0.0101,0.0089,0.0053,0.0021,0.001,0.0003,-0.0004,-0.0028,-0.0001,0.0002,-0.0011,-0.0075,-0.0079,-0.0083,-0.0046,-0.0046,-0.0046,0,0,0.0247,0.0243,0.026,0.0255,0.0241,0.0223,0.0223,0.0197,0.0182,0.0171,0.0126,0.0088,0.0072,0.0032,0.0016,0.0038,-0.0005,0.0051,0.0069,0.0009,0.0005,0.0001,-0.0032,-0.0039,0.006,0.006,0.006,0,0.0252,0.0274,0.026,0.0276,0.0272,0.0238,0.0248,0.0236,0.0202,0.0184,0.0175,0.0112,0.0077,0.0042,0.0049,0.0044,0.0017,0.0045,0.0012,0.0007,0.0002,-0.0031,-0.004,0.0062,0.0062,0.0062,0.0061,0,0.0289,0.0306,0.0317,0.0327,0.0321,0.0327,0.0306,0.0293,0.0273,0.0246,0.0207,0.0156,0.0111,0.0106,0.0083,0.004,0.0036,0.0017,-0.0011,-0.0,-0.0034,-0.0044,0.0065,0.0064,0.0063,0.0063,0,0,0.0296,0.0335,0.0339,0.0354,0.035,0.0348,0.0346,0.0322,0.0307,0.0277,0.0248,0.0199,0.0155,0.0134,0.0096,0.0048,-0.0009,0.0027,0.0022,-0.0018,-0.012,-0.0102,-0.0112,-0.0034,-0.0036,-0.0038,-0.0121,0,0.0324,0.0374,0.0377,0.0408,0.0428,0.04,0.0398,0.0371,0.0339,0.0304,0.0244,0.0206,0.0176,0.015,0.0096,0.0012,-0.0036,0.0017,-0.0113,-0.0117,-0.0115,-0.0124,-0.0044,-0.0129,-0.0132,-0.0133,-0.0135,0,0.0357,0.0386,0.0432,0.0452,0.0454,0.0464,0.0437,0.043,0.0372,0.0345,0.0288,0.0237,0.0162,0.0137,-0.0002,0.0038,-0.0039,-0.0101,-0.0106,-0.0116,-0.0119,-0.0146,-0.0153,-0.0152,-0.0151,-0.0149,-0.0148,0,0.0379,0.0421,0.046,0.0471,0.0485,0.0489,0.0484,0.044,0.0426,0.0364,0.034,0.0247,0.0201,0.009,-0.0025,-0.0021,-0.0175,-0.0189,-0.0246,-0.0244,-0.0252,-0.0247,-0.0302,-0.0302,-0.0302,-0.0301,-0.0301,0,0.041,0.0442,0.0479,0.0504,0.0524,0.0524,0.0525,0.0497,0.0461,0.0439,0.0364,0.0326,0.0184,0.0085,-0.0023,-0.0155,-0.0177,-0.0253,-0.0275,-0.0229,-0.022,-0.0258,-0.0252,-0.0304,-0.0304,-0.0303,-0.0303,0,0.0429,0.0463,0.0504,0.0534,0.0543,0.0554,0.0562,0.0548,0.0522,0.0491,0.0474,0.0374,0.0248,0.0112,-0.007,-0.0146,-0.028,-0.0324,-0.0245,-0.0259,-0.0308,-0.0299,-0.0402,-0.0402,-0.0402,-0.0403,-0.0403,0,0.0443,0.0473,0.0523,0.0537,0.0555,0.0578,0.0579,0.0573,0.0564,0.0519,0.0501,0.039,0.0309,0.0085,-0.0066,-0.0267,-0.0297,-0.0357,-0.0357,-0.0313,-0.0323,-0.0314,-0.0304,-0.0403,-0.0403,-0.0403,-0.0403,0,0.0445,0.047,0.0493,0.0532,0.0552,0.058,0.0598,0.0604,0.059,0.0575,0.0519,0.0403,0.0265,0.0092,-0.006,-0.0208,-0.0314,-0.0361,-0.0361,-0.0362,-0.0316,-0.0324,-0.0314,-0.0404,-0.0404,-0.0404,-0.0404,0,0.0425,0.0435,0.0467,0.0501,0.053,0.0565,0.0588,0.059,0.0589,0.0562,0.0545,0.0405,0.0327,0.0121,-0.0022,-0.0159,-0.0203,-0.0244,-0.0251,-0.0252,-0.0184,-0.0101,-0.0152,0,0,0,0,0,0.0393,0.0405,0.0429,0.0466,0.0503,0.0532,0.0577,0.0598,0.0611,0.0578,0.0569,0.0445,0.024,0.0149,0.0011,-0.0049,-0.0241,-0.0215,-0.0295,-0.0409,-0.0408,-0.0352,0,0,0,0,0,0,0.0363,0.0383,0.041,0.0434,0.0461,0.0499,0.0539,0.0558,0.0552,0.0555,0.045,0.0411,0.0208,0.0315,0.0007,-0.0036,-0.0104,-0.0309,-0.0312,-0.041,-0.0409,-0.0408,-0.035,0,0,0,0,0]}]]